Location: Blue Mountain Vista Observatory
(40.6992°N, 75.9422°W)
Time: 08:10:11
(UTC-04:00)

Daily predictions for brighter satellites

Satellite Brightness Start Highest point End
(mag) Time Altitude Azimuth Time Altitude Azimuth Time Altitude Azimuth
CZ-3C R/B 4.3 20:04:03 10° SW 20:46:20 27° S 20:55:20 10° SE
Cosmos 1340 Rocket 4.4 20:46:21 10° SSW 20:50:08 41° WNW 20:53:59 10° N
ATLAS 5 CENTAUR R/B 3.2 20:44:29 10° NW 20:50:22 52° WSW 20:56:35 10° SSE
Cosmos 2154 Rocket 4.4 20:45:54 10° SSE 20:51:41 43° E 20:57:30 10° NNE
H-2A R/B 3.0 20:49:13 10° S 20:52:54 71° WSW 20:56:39 10° NNW
H-2A R/B 3.0 20:53:19 10° SE 20:57:03 30° ENE 21:00:44 10° N
Cosmos 2184 Rocket 4.1 20:51:36 10° S 20:57:46 85° W 21:03:59 10° N
YAOGAN 11 4.2 20:55:13 10° SSE 20:59:42 68° ENE 21:04:16 10° N
Cosmos 1782 2.8 20:55:45 10° N 20:59:48 81° E 21:03:50 10° S
Cosmos 1174 3.1 20:58:16 10° NNW 21:01:29 74° ENE 21:04:25 10° SE
Cosmos 676 Rocket 4.1 20:56:46 10° NNW 21:01:58 66° ENE 21:07:09 10° SSE
Cosmos 1408 3.4 20:59:28 10° SSE 21:02:45 32° E 21:06:01 10° NNE
Cosmos 1954 Rocket 4.2 21:00:04 10° N 21:05:12 55° ENE 21:10:19 10° SE
Okean 3 4.2 21:05:35 10° N 21:09:33 37° ENE 21:13:22 11° SE
Atlas Centaur 2 3.2 21:08:38 10° SW 21:10:17 13° SSW 21:11:53 10° SSE
COS B Rocket 3.7 21:07:30 10° NNE 21:11:13 38° E 21:14:32 10° SSE
Meteor 2-6 Rocket 4.4 21:06:12 10° N 21:12:10 83° W 21:17:58 10° S
CZ-4 DEB 3.1 21:11:01 10° S 21:14:09 65° W 21:17:19 10° NNW
Cosmos 1833 Rocket 4.2 21:11:04 10° N 21:15:25 22° NE 21:19:33 11° ESE
Cosmos 1844 Rocket 3.5 21:13:31 10° SW 21:19:04 57° WNW 21:24:38 10° NNE
Cosmos 1825 2.3 21:15:54 10° S 21:19:38 57° E 21:23:23 10° NNE
Cosmos 1939 Rocket 2.8 21:16:09 10° SSE 21:19:59 66° ENE 21:23:55 10° N
Cosmos 2278 Rocket 2.2 21:15:32 10° SSW 21:21:10 74° ESE 21:26:51 10° NNE
GPS 2-05 Rocket1 3.7 21:18:13 10° WSW 21:21:41 37° S 21:24:06 17° ESE
Cosmos 1674 Rocket 4.3 21:19:10 10° NNW 21:23:31 54° W 21:27:49 10° S
Cosmos 1844 4.2 21:21:38 10° SSW 21:27:21 67° WNW 21:33:10 10° NNE
ALOS 4.2 21:23:43 10° SSW 21:27:44 28° W 21:31:48 10° NW
Okean 2 Rocket 3.2 21:28:09 10° S 21:32:26 52° E 21:36:43 10° NNE
Envisat 3.0 21:31:59 10° SSE 21:37:03 88° E 21:42:10 10° NNW
SEDSat Delta rocket 4.3 21:35:06 10° SW 21:38:14 19° S 21:39:01 18° SSE
PSLV R/B 3.7 21:38:39 27° ESE 21:39:46 39° ENE 21:42:33 10° N
Cosmos 1782 Rocket 3.5 21:35:47 10° S 21:40:13 80° E 21:44:43 10° N
Cosmos 2082 Rocket 2.8 21:36:01 10° N 21:41:25 42° ENE 21:44:56 20° ESE
Cosmos 614 Rocket 4.3 21:36:56 10° N 21:41:53 50° ENE 21:45:00 21° SE
CZ-4 SHROUD 3.7 21:41:47 27° SE 21:42:58 41° ENE 21:45:55 10° N
Nadezhda 3 Rocket 4.2 21:38:09 10° N 21:44:31 76° W 21:50:52 10° S
Intercosmos 25 3.2 21:43:01 20° SSE 21:45:08 47° E 21:48:12 10° NNE
OAO 3 Rocket 3.9 21:41:21 10° SW 21:45:49 34° SSE 21:48:02 23° ESE
Cosmos 2218 Rocket 4.4 21:41:56 14° SSE 21:47:08 46° E 21:53:12 10° NNE
ERS-1 Rocket 3.8 21:44:08 10° S 21:48:59 48° W 21:53:52 10° NNW
Cosmos 1420 Rocket 4.0 21:44:22 10° SSW 21:49:36 88° ESE 21:54:51 10° NNE
APEX 3.4 21:46:20 10° SSW 21:50:12 81° ESE 21:55:21 10° NNE
COSMOS 2487 3.3 21:48:40 10° NNW 21:52:10 48° WSW 21:54:41 17° S
DNEPR-1 R/B 3.7 21:47:35 10° NNW 21:52:56 88° SW 21:55:32 26° SSE
Meteor 1-14 Rocket 4.3 21:48:54 13° S 21:53:50 56° E 21:59:17 10° NNE
Cosmos 1975 Rocket 3.1 21:50:57 10° N 21:55:18 79° W 21:58:29 18° S
Cosmos 1140 Rocket 3.5 21:51:20 10° NNW 21:56:30 78° WSW 22:00:07 20° S
USA 234 4.4 21:53:16 10° ENE 21:56:42 19° ESE 21:56:42 19° ESE
Cosmos 2297 3.6 21:52:58 10° SSW 21:58:39 76° ESE 22:04:23 10° NNE
Cosmos 1727 Rocket 4.5 21:55:08 10° N 22:01:00 43° ENE 22:04:02 26° SE
Terra 3.3 22:01:13 19° E 22:02:42 22° ENE 22:06:18 10° NNE
NOAA 11 4.4 22:01:15 26° SE 22:04:12 55° ENE 22:09:34 10° N
AVUM R/B 4.4 22:01:21 10° N 22:04:32 31° ENE 22:05:10 29° E
CZ-4B R/B 3.4 22:01:53 10° NNE 22:06:44 56° E 22:09:18 26° S
ISS -1.0 22:04:35 10° W 22:07:22 25° NNW 22:10:10 10° NE
MetOp-B 4.1 22:04:33 21° SSE 22:08:12 84° WSW 22:13:36 10° NNW
Cosmos 1536 Rocket 4.1 22:03:55 10° N 22:08:13 43° ENE 22:09:30 34° ESE
H-2A R/B 3.0 22:11:12 27° ESE 22:13:10 35° ENE 22:17:55 10° N
NOSS 8 (F) 4.3 22:11:48 26° SSW 22:13:34 65° ESE 22:17:11 10° NE
Cosmos 1238 Rocket 4.3 22:10:40 10° NNW 22:13:44 30° W 22:17:07 11° SSW
BREEZE-M DEB (TANK) 4.3 22:13:29 10° NW 22:14:53 15° N 22:16:44 10° NE
SPOT 5 3.6 22:14:02 17° S 22:18:00 56° W 22:23:17 10° NNW
SL-8 Rocket 4.0 22:14:00 10° S 22:20:16 81° W 22:26:33 10° N
Abrixas 3.8 22:23:12 10° WSW 22:24:57 31° WSW 22:24:57 31° WSW
USA 245 3.3 22:25:48 49° SSW 22:26:38 71° W 22:30:52 10° NNW
Cosmos 2369 Rocket 4.0 22:29:38 15° E 22:29:38 15° E 22:31:36 10° ENE
SPOT 1/Viking Rocket 3.6 22:26:12 32° S 22:28:43 78° WSW 22:33:58 10° NNW
Cosmos 1242 Rocket 4.2 22:26:19 10° NNW 22:29:37 31° W 22:31:23 20° SW
Gbstr 26 Del rocket 4.1 22:24:54 10° NW 22:29:47 41° NNE 22:31:42 26° ENE
ARGOS 3.1 22:27:48 34° SSE 22:30:14 87° W 22:35:38 10° NNW
Timation 2 Rocket 4.5 22:25:03 10° NW 22:30:46 49° WSW 22:34:07 24° S
Lacrosse 5 2.5 22:31:52 35° E 22:31:52 35° E 22:35:33 10° ENE
H-2A R/B 4.1 22:29:41 10° SSW 22:33:04 22° W 22:36:24 10° NW
YAOGAN 6 3.8 22:33:23 29° SW 22:34:28 36° W 22:37:45 10° NNW
Cosmos 2151 Rocket 3.9 22:36:41 29° SSW 22:38:55 66° W 22:43:26 10° N
CZ-4C R/B 3.4 22:38:45 60° E 22:39:00 62° ENE 22:43:06 10° N
USA 229 DEB 3.8 22:40:13 10° NW 22:47:20 74° WSW 22:50:15 39° SSE
USA 229 3.8 22:40:19 10° NW 22:47:26 75° WSW 22:50:21 39° SSE
Cosmos 1300 Rocket 3.5 22:49:12 65° ESE 22:49:18 65° E 22:53:43 10° NNE
ASTEX 1 3.7 22:46:43 10° NNE 22:51:30 46° E 22:51:33 46° E
Meteor 1-20 Rocket 4.1 22:50:15 39° S 22:52:26 89° WNW 22:57:59 10° N
Timation 1 Rocket 4.4 22:48:54 15° SSW 22:54:00 80° WNW 23:00:03 10° NNE
Okean 1 Rocket 3.1 22:56:16 66° E 22:56:16 66° E 23:00:37 10° NNE
Cosmos 1833 Rocket 3.0 22:54:13 10° NNW 22:59:42 57° WSW 23:01:16 42° SSW
NOSS 3-1 (A) 4.4 22:58:15 10° NNW 23:05:36 53° NE 23:09:02 34° ESE
Cosmos 1331 Rocket 4.1 23:05:38 37° SW 23:07:37 69° WNW 23:12:46 10° NNE
Okean 1-7 Rocket 3.5 23:08:52 10° N 23:13:10 81° N 23:13:10 81° N
Okean 1 3.8 23:10:51 10° NNW 23:14:37 56° WNW 23:14:37 56° WNW
DMSP B5D2-2 4.1 23:14:24 10° N 23:19:38 77° WNW 23:20:37 58° SW
Cosmos 2082 Rocket 3.6 23:20:33 10° NW 23:25:14 27° WSW 23:26:48 24° SW
ATLAS 2AS CENTAUR R/B 4.2 23:19:05 10° NNW 23:26:20 34° NE 23:30:49 20° E
Cosmos 1812 4.2 23:24:06 10° NNW 23:27:15 30° W 23:27:15 30° W
CARTOSAT-1 4.5 23:32:46 41° W 23:32:46 41° W 23:36:37 10° NNW
NOSS 3-1 (C) 4.0 23:27:11 10° NW 23:34:49 89° ENE 23:37:00 54° SE
Genesis I 4.4 23:37:08 42° N 23:37:08 42° N 23:40:09 10° NNE
Cosmos 1000 Rocket 4.5 23:30:25 10° N 23:36:41 77° W 23:37:44 62° SSW
Meteor 2-4 Rocket 3.7 23:31:47 10° N 23:37:12 65° ENE 23:37:12 65° ENE
Terra 2.7 23:40:06 40° W 23:40:10 40° W 23:44:39 10° NNW
USA 234 3.1 23:34:52 10° NE 23:41:27 82° SE 23:43:56 42° SW
Cosmos 2239 Rocket 4.5 23:40:41 62° SSW 23:41:46 81° W 23:48:08 10° N
BREEZE-M TANK 3.0 23:35:25 10° WNW 23:42:07 62° NNW 23:42:07 62° NNW
Cosmos 1486 Rocket 4.5 23:39:30 10° NNW 23:44:39 50° WSW 23:44:40 50° WSW
ISS 0.0 23:43:11 10° NNW 23:44:40 12° N 23:46:09 10° NNE
Cosmos 1354 Rocket 4.0 23:40:01 10° NNW 23:45:03 80° N 23:45:03 80° N
H-2A R/B 3.4 23:51:51 29° WSW 23:52:32 30° W 23:57:10 10° NW
Cosmos 1315 Rocket 4.5 23:55:14 30° N 23:55:14 30° N 23:57:19 10° N
